User: anonymous   Login
Location: Shenandoah County Park
(38.9356°N, 78.4524°W)
Time: 21:11:12
(UTC-04:00)
Language:

Transit 2A - Orbit

View from above orbital plane
View from above orbital plane
View from above satellite
View from above satellite

Ground track
Ground track

The orbit data is extracted from the following two-line orbital elements,

1    45U 60007A   24145.84229293  .00000601  00000-0  17352-3 0  9995
2    45  66.6929 191.2153 0254379 347.2453  12.2286 14.34707752328799
Epoch (UTC): 24 May 2024 20:12:54
Eccentricity: 0.0254379
inclination: 66.6929°
perigee height: 594 km
apogee height: 958 km
right ascension of ascending node: 191.2153°
argument of perigee: 347.2453°
revolutions per day: 14.34707752
mean anomaly at epoch: 12.2286°
orbit number at epoch: 32879

The dashed part of the orbit path shows where the satellite is in the earth's shadow,  

DLR